UAL2319 KTPA-KIAH

Flight info

Callsign UAL2319
Flight time 2h 1m
Altitude 32000
Route DORMR3 FROOT BUNNZ Y290 LEV NNCEE2
Aircraft B738/M-SDE2E3FGHIRWXY/LB1

Departure

Time 2026-05-03 23:07
Airport Tampa International Airport (KTPA)

Arrival

Time 2026-05-04 01:08
Airport George Bush Intercontinental Airport (KIAH)
Time Latitude Longitude Altitude Speed Heading
2026-05-03 22:28 27.97476 -82.53267 42 ft 0 kts 52°
2026-05-03 22:57 27.97476 -82.53268 42 ft 1 kts 52°
2026-05-03 22:57 27.97461 -82.53289 42 ft 4 kts 52°
2026-05-03 22:57 27.97445 -82.53313 41 ft 4 kts 52°
2026-05-03 22:57 27.97432 -82.53333 42 ft 4 kts 65°
2026-05-03 22:58 27.97429 -82.53358 42 ft 4 kts 127°
2026-05-03 22:58 27.97447 -82.53367 42 ft 4 kts 181°
2026-05-03 22:58 27.97461 -82.53366 42 ft 1 kts 181°
2026-05-03 23:00 27.97451 -82.53366 42 ft 4 kts 179°
2026-05-03 23:00 27.97403 -82.53348 42 ft 10 kts 149°
2026-05-03 23:01 27.97377 -82.53330 40 ft 4 kts 151°
2026-05-03 23:01 27.97348 -82.53322 42 ft 6 kts 177°
2026-05-03 23:01 27.97316 -82.53376 43 ft 11 kts 266°
2026-05-03 23:01 27.97318 -82.53464 46 ft 11 kts 272°
2026-05-03 23:02 27.97328 -82.53548 49 ft 11 kts 282°
2026-05-03 23:02 27.97357 -82.53640 53 ft 17 kts 292°
2026-05-03 23:02 27.97436 -82.53790 47 ft 27 kts 304°
2026-05-03 23:02 27.97510 -82.53924 44 ft 16 kts 291°
2026-05-03 23:03 27.97515 -82.54045 46 ft 15 kts 241°
2026-05-03 23:03 27.97418 -82.54075 47 ft 15 kts 181°
2026-05-03 23:03 27.97313 -82.54079 47 ft 16 kts 181°
2026-05-03 23:03 27.97189 -82.54083 48 ft 20 kts 181°
2026-05-03 23:04 27.97039 -82.54089 58 ft 23 kts 182°
2026-05-03 23:04 27.96869 -82.54093 48 ft 26 kts 181°
2026-05-03 23:04 27.96675 -82.54102 48 ft 29 kts 182°
2026-05-03 23:04 27.96464 -82.54107 47 ft 28 kts 182°
2026-05-03 23:05 27.96344 -82.54148 46 ft 15 kts 250°
2026-05-03 23:05 27.96366 -82.54233 46 ft 8 kts 343°
2026-05-03 23:05 27.96418 -82.54233 47 ft 7 kts
2026-05-03 23:05 27.96484 -82.54231 48 ft 17 kts
2026-05-03 23:06 27.96836 -82.54219 50 ft 85 kts
2026-05-03 23:06 27.97635 -82.54191 45 ft 143 kts
2026-05-03 23:06 27.98771 -82.54155 230 ft 177 kts
2026-05-03 23:06 28.00076 -82.54129 583 ft 206 kts
2026-05-03 23:07 28.01568 -82.54169 867 ft 225 kts 355°
2026-05-03 23:07 28.03171 -82.54505 1083 ft 243 kts 333°
2026-05-03 23:07 28.04437 -82.55804 1195 ft 256 kts 294°
2026-05-03 23:07 28.04667 -82.57731 2006 ft 249 kts 260°
2026-05-03 23:08 28.04039 -82.59540 2869 ft 250 kts 239°
2026-05-03 23:08 28.02945 -82.61073 3778 ft 250 kts 230°
2026-05-03 23:08 28.01747 -82.62508 4588 ft 253 kts 229°
2026-05-03 23:08 28.00523 -82.63944 5349 ft 255 kts 229°
2026-05-03 23:09 27.99287 -82.65397 5830 ft 259 kts 229°
2026-05-03 23:09 27.98071 -82.66840 6023 ft 256 kts 229°
2026-05-03 23:09 27.96840 -82.68305 6534 ft 260 kts 229°
2026-05-03 23:09 27.95591 -82.69804 7249 ft 261 kts 229°
2026-05-03 23:10 27.94346 -82.71302 7989 ft 262 kts 230°
2026-05-03 23:10 27.93514 -82.72301 8464 ft 264 kts 230°
2026-05-03 23:10 27.91830 -82.74336 9450 ft 266 kts 230°
2026-05-03 23:10 27.90564 -82.75873 10179 ft 268 kts 230°
2026-05-03 23:11 27.89251 -82.77466 10453 ft 288 kts 230°
2026-05-03 23:11 27.87831 -82.79191 10588 ft 310 kts 230°
2026-05-03 23:11 27.86336 -82.81005 10719 ft 329 kts 230°
2026-05-03 23:11 27.84726 -82.82951 10852 ft 348 kts 229°
2026-05-03 23:12 27.83029 -82.85001 10962 ft 365 kts 229°
2026-05-03 23:12 27.81266 -82.87132 11181 ft 375 kts 229°
2026-05-03 23:12 27.79474 -82.89297 11596 ft 379 kts 229°
2026-05-03 23:12 27.77670 -82.91474 12107 ft 380 kts 229°
2026-05-03 23:13 27.75855 -82.93663 12623 ft 383 kts 229°
2026-05-03 23:13 27.74027 -82.95869 13144 ft 385 kts 229°
2026-05-03 23:13 27.72191 -82.98084 13647 ft 387 kts 229°
2026-05-03 23:13 27.70345 -83.00311 14106 ft 390 kts 229°
2026-05-03 23:14 27.68540 -83.02588 14630 ft 388 kts 235°
2026-05-03 23:14 27.67186 -83.05203 15209 ft 385 kts 247°
2026-05-03 23:14 27.66271 -83.08032 15807 ft 383 kts 255°
2026-05-03 23:14 27.65833 -83.10991 16347 ft 384 kts 264°
2026-05-03 23:15 27.65590 -83.13993 16857 ft 384 kts 264°
2026-05-03 23:15 27.65343 -83.16996 17331 ft 385 kts 263°
2026-05-03 23:15 27.65082 -83.20010 17823 ft 386 kts 263°
2026-05-03 23:15 27.64813 -83.22982 18290 ft 387 kts 263°
2026-05-03 23:16 27.64532 -83.26006 18685 ft 388 kts 262°
2026-05-03 23:16 27.64249 -83.29039 19022 ft 390 kts 262°
2026-05-03 23:16 27.63962 -83.32095 19351 ft 393 kts 262°
2026-05-03 23:16 27.63674 -83.35161 19691 ft 394 kts 262°
2026-05-03 23:17 27.63383 -83.38251 20034 ft 396 kts 262°
2026-05-03 23:17 27.63091 -83.41356 20357 ft 398 kts 262°
2026-05-03 23:17 27.62797 -83.44467 20683 ft 400 kts 262°
2026-05-03 23:17 27.62504 -83.47558 20990 ft 402 kts 262°
2026-05-03 23:18 27.62207 -83.50692 21308 ft 403 kts 262°
2026-05-03 23:18 27.61908 -83.53845 21623 ft 405 kts 262°
2026-05-03 23:18 27.61607 -83.57010 21900 ft 407 kts 262°
2026-05-03 23:18 27.61303 -83.60189 22170 ft 409 kts 262°
2026-05-03 23:19 27.60998 -83.63387 22456 ft 411 kts 262°
2026-05-03 23:19 27.60691 -83.66591 22738 ft 412 kts 262°
2026-05-03 23:19 27.60381 -83.69812 23007 ft 413 kts 262°
2026-05-03 23:19 27.60069 -83.73043 23263 ft 415 kts 262°
2026-05-03 23:20 27.59760 -83.76245 23528 ft 417 kts 262°
2026-05-03 23:20 27.59445 -83.79502 23732 ft 418 kts 262°
2026-05-03 23:20 27.59128 -83.82763 23955 ft 419 kts 262°
2026-05-03 23:20 27.58811 -83.86028 24185 ft 419 kts 262°
2026-05-03 23:21 27.58492 -83.89299 24410 ft 420 kts 262°
2026-05-03 23:21 27.58171 -83.92582 24600 ft 421 kts 262°
2026-05-03 23:21 27.57848 -83.95877 24773 ft 423 kts 262°
2026-05-03 23:21 27.57523 -83.99182 24966 ft 424 kts 262°
2026-05-03 23:22 27.56870 -84.05805 25405 ft 425 kts 262°
2026-05-03 23:22 27.56546 -84.09083 25604 ft 426 kts 262°
2026-05-03 23:22 27.56216 -84.12400 25788 ft 426 kts 262°
2026-05-03 23:23 27.56017 -84.15730 25982 ft 427 kts 268°
2026-05-03 23:23 27.56177 -84.19068 26238 ft 427 kts 274°
2026-05-03 23:23 27.56704 -84.22370 26524 ft 427 kts 278°
2026-05-03 23:23 27.57270 -84.25659 26813 ft 425 kts 277°
2026-05-03 23:24 27.57819 -84.28926 27090 ft 424 kts 277°
2026-05-03 23:24 27.58357 -84.32186 27387 ft 422 kts 277°
2026-05-03 23:24 27.58888 -84.35437 27693 ft 421 kts 277°
2026-05-03 23:24 27.59415 -84.38682 28022 ft 419 kts 277°
2026-05-03 23:25 27.59931 -84.41875 28341 ft 417 kts 277°
2026-05-03 23:25 27.60447 -84.45082 28688 ft 415 kts 277°
2026-05-03 23:25 27.60962 -84.48280 29046 ft 413 kts 277°
2026-05-03 23:25 27.61474 -84.51464 29404 ft 411 kts 277°
2026-05-03 23:26 27.61983 -84.54634 29764 ft 410 kts 277°
2026-05-03 23:26 27.62489 -84.57784 30135 ft 407 kts 277°
2026-05-03 23:26 27.62992 -84.60922 30453 ft 405 kts 277°
2026-05-03 23:26 27.63493 -84.64051 30752 ft 404 kts 276°
2026-05-03 23:27 27.63984 -84.67125 31065 ft 403 kts 276°
2026-05-03 23:27 27.64479 -84.70230 31378 ft 401 kts 276°
2026-05-03 23:27 27.64971 -84.73318 31689 ft 399 kts 276°
2026-05-03 23:27 27.65461 -84.76398 31976 ft 398 kts 276°
2026-05-03 23:28 27.66440 -84.82574 32044 ft 400 kts 276°
2026-05-03 23:28 27.67415 -84.88731 32046 ft 397 kts 276°
2026-05-03 23:29 27.68382 -84.94856 32050 ft 396 kts 276°
2026-05-03 23:29 27.69343 -85.00967 32049 ft 395 kts 276°
2026-05-03 23:30 27.70297 -85.07047 32059 ft 395 kts 276°
2026-05-03 23:30 27.71254 -85.13166 32054 ft 395 kts 276°
2026-05-03 23:31 27.72206 -85.19271 32057 ft 395 kts 276°
2026-05-03 23:31 27.73158 -85.25392 32055 ft 396 kts 276°
2026-05-03 23:32 27.74108 -85.31476 32057 ft 396 kts 277°
2026-05-03 23:32 27.75246 -85.37575 32060 ft 397 kts 278°
2026-05-03 23:33 27.76246 -85.42675 32058 ft 397 kts 278°
2026-05-03 23:33 27.77422 -85.48737 32068 ft 397 kts 278°
2026-05-03 23:34 27.78585 -85.54828 32069 ft 396 kts 278°
2026-05-03 23:34 27.79737 -85.60912 32074 ft 396 kts 278°
2026-05-03 23:35 27.80885 -85.66999 32069 ft 396 kts 278°
2026-05-03 23:35 27.82030 -85.73086 32077 ft 396 kts 278°
2026-05-03 23:36 27.83163 -85.79129 32073 ft 396 kts 278°
2026-05-03 23:36 27.84300 -85.85205 32071 ft 395 kts 278°
2026-05-03 23:37 27.85434 -85.91281 32067 ft 395 kts 278°
2026-05-03 23:37 27.86567 -85.97363 32078 ft 395 kts 278°
2026-05-03 23:38 27.87697 -86.03449 32080 ft 395 kts 278°
2026-05-03 23:38 27.88823 -86.09528 32077 ft 395 kts 278°
2026-05-03 23:39 27.89947 -86.15614 32083 ft 395 kts 278°
2026-05-03 23:39 27.90507 -86.18654 32187 ft 395 kts 278°
2026-05-03 23:39 27.91068 -86.21699 32150 ft 395 kts 278°
2026-05-03 23:40 27.92186 -86.27785 32094 ft 394 kts 278°
2026-05-03 23:40 27.93297 -86.33847 32083 ft 392 kts 278°
2026-05-03 23:41 27.94403 -86.39892 32085 ft 392 kts 278°
2026-05-03 23:41 27.95496 -86.45882 32084 ft 391 kts 278°
2026-05-03 23:42 27.96593 -86.51909 32089 ft 391 kts 278°
2026-05-03 23:42 27.97688 -86.57950 32107 ft 392 kts 278°
2026-05-03 23:43 27.98780 -86.63990 32092 ft 392 kts 279°
2026-05-03 23:43 27.99872 -86.70028 32091 ft 391 kts 279°
2026-05-03 23:44 28.00969 -86.76057 32095 ft 392 kts 280°
2026-05-03 23:44 28.02613 -86.81964 32104 ft 394 kts 285°
2026-05-03 23:45 28.04389 -86.87811 32104 ft 395 kts 284°
2026-05-03 23:45 28.06164 -86.93713 32103 ft 396 kts 284°
2026-05-03 23:46 28.07926 -86.99622 32104 ft 396 kts 285°
2026-05-03 23:46 28.09678 -87.05534 32102 ft 395 kts 285°
2026-05-03 23:47 28.11426 -87.11433 32106 ft 395 kts 285°
2026-05-03 23:47 28.13171 -87.17340 32108 ft 395 kts 285°
2026-05-03 23:48 28.14914 -87.23262 32109 ft 395 kts 285°
2026-05-03 23:48 28.16637 -87.29128 32112 ft 395 kts 285°
2026-05-03 23:49 28.18369 -87.35033 32121 ft 394 kts 285°
2026-05-03 23:49 28.20097 -87.40932 32115 ft 394 kts 285°
2026-05-03 23:50 28.21530 -87.45831 32118 ft 394 kts 285°
2026-05-03 23:50 28.23540 -87.52720 32116 ft 393 kts 285°
2026-05-03 23:51 28.25257 -87.58618 32118 ft 393 kts 285°
2026-05-03 23:51 28.26972 -87.64515 32118 ft 393 kts 285°
2026-05-03 23:52 28.28671 -87.70372 32115 ft 393 kts 285°
2026-05-03 23:52 28.30382 -87.76271 32118 ft 393 kts 286°
2026-05-03 23:53 28.32084 -87.82160 32122 ft 392 kts 286°
2026-05-03 23:53 28.33783 -87.88043 32123 ft 392 kts 286°
2026-05-03 23:54 28.35477 -87.93925 32158 ft 392 kts 286°
2026-05-03 23:54 28.37177 -87.99834 32132 ft 394 kts 286°
2026-05-03 23:55 28.39022 -88.05701 32125 ft 396 kts 290°
2026-05-03 23:55 28.41269 -88.11386 32125 ft 397 kts 292°
2026-05-03 23:56 28.43554 -88.17096 32130 ft 396 kts 291°
2026-05-03 23:56 28.45814 -88.22805 32122 ft 395 kts 291°
2026-05-03 23:57 28.48052 -88.28505 32130 ft 395 kts 291°
2026-05-03 23:57 28.50282 -88.34211 32132 ft 395 kts 291°
2026-05-03 23:58 28.52509 -88.39917 32137 ft 395 kts 291°
2026-05-03 23:58 28.54733 -88.45625 32134 ft 395 kts 291°
2026-05-03 23:59 28.56954 -88.51334 32140 ft 394 kts 292°
2026-05-03 23:59 28.59165 -88.57028 32140 ft 393 kts 292°
2026-05-04 00:00 28.61357 -88.62684 32139 ft 392 kts 292°
2026-05-04 00:00 28.63556 -88.68357 32146 ft 391 kts 292°
2026-05-04 00:01 28.65753 -88.74035 32138 ft 392 kts 292°
2026-05-04 00:01 28.67951 -88.79729 32157 ft 393 kts 292°
2026-05-04 00:02 28.70144 -88.85416 32143 ft 395 kts 292°
2026-05-04 00:02 28.72347 -88.91141 32145 ft 394 kts 292°
2026-05-04 00:03 28.74546 -88.96859 32142 ft 394 kts 292°
2026-05-04 00:03 28.76742 -89.02579 32142 ft 393 kts 292°
2026-05-04 00:04 28.78933 -89.08297 32145 ft 393 kts 292°
2026-05-04 00:04 28.81118 -89.14013 32144 ft 393 kts 292°
2026-05-04 00:05 28.83301 -89.19724 32145 ft 393 kts 292°
2026-05-04 00:05 28.85467 -89.25401 32132 ft 392 kts 293°
2026-05-04 00:06 28.87639 -89.31100 32147 ft 391 kts 293°
2026-05-04 00:06 28.89803 -89.36787 32133 ft 390 kts 293°
2026-05-04 00:07 28.91955 -89.42457 32137 ft 389 kts 292°
2026-05-04 00:07 28.94105 -89.48128 32139 ft 389 kts 292°
2026-05-04 00:08 28.96253 -89.53803 32163 ft 390 kts 293°
2026-05-04 00:08 28.98412 -89.59514 32148 ft 392 kts 293°
2026-05-04 00:09 29.00576 -89.65246 32143 ft 394 kts 292°
2026-05-04 00:09 29.02728 -89.70957 32140 ft 394 kts 292°
2026-05-04 00:10 29.04894 -89.76712 32143 ft 394 kts 292°
2026-05-04 00:10 29.07060 -89.82479 32141 ft 394 kts 292°
2026-05-04 00:11 29.08858 -89.87270 32142 ft 394 kts 292°
2026-05-04 00:11 29.09838 -89.89888 32141 ft 394 kts 292°
2026-05-04 00:12 29.11995 -89.95650 32139 ft 394 kts 292°
2026-05-04 00:12 29.14148 -90.01411 32124 ft 393 kts 293°
2026-05-04 00:13 29.16277 -90.07116 32136 ft 392 kts 293°
2026-05-04 00:13 29.17926 -90.13030 32151 ft 393 kts 280°
2026-05-04 00:14 29.18664 -90.19228 32151 ft 392 kts 281°
2026-05-04 00:14 29.19431 -90.25406 32145 ft 392 kts 281°
2026-05-04 00:15 29.20213 -90.31585 32149 ft 392 kts 281°
2026-05-04 00:15 29.20997 -90.37765 32146 ft 392 kts 281°
2026-05-04 00:16 29.21778 -90.43934 32148 ft 390 kts 281°
2026-05-04 00:16 29.22551 -90.50072 32137 ft 389 kts 281°
2026-05-04 00:17 29.23320 -90.56203 32139 ft 388 kts 281°
2026-05-04 00:17 29.24086 -90.62322 32139 ft 388 kts 281°
2026-05-04 00:18 29.24845 -90.68407 32173 ft 388 kts 281°
2026-05-04 00:18 29.25481 -90.73523 32150 ft 391 kts 281°
2026-05-04 00:19 29.26245 -90.79691 32137 ft 392 kts 282°
2026-05-04 00:19 29.27007 -90.85875 32137 ft 392 kts 282°
2026-05-04 00:20 29.27766 -90.92056 32143 ft 392 kts 282°
2026-05-04 00:20 29.28522 -90.98237 32141 ft 392 kts 282°
2026-05-04 00:21 29.29274 -91.04414 32139 ft 391 kts 282°
2026-05-04 00:21 29.30023 -91.10599 32144 ft 391 kts 282°
2026-05-04 00:22 29.30770 -91.16765 32131 ft 390 kts 282°
2026-05-04 00:22 29.31509 -91.22899 32140 ft 387 kts 282°
2026-05-04 00:23 29.32236 -91.28968 32141 ft 386 kts 282°
2026-05-04 00:23 29.32962 -91.35060 32146 ft 386 kts 282°
2026-05-04 00:24 29.33685 -91.41147 32145 ft 385 kts 282°
2026-05-04 00:24 29.34405 -91.47243 32148 ft 386 kts 282°
2026-05-04 00:25 29.35123 -91.53332 32120 ft 385 kts 282°
2026-05-04 00:25 29.35837 -91.59418 32141 ft 385 kts 282°
2026-05-04 00:26 29.36549 -91.65501 32149 ft 385 kts 282°
2026-05-04 00:26 29.37256 -91.71581 32143 ft 385 kts 282°
2026-05-04 00:27 29.37962 -91.77667 32145 ft 385 kts 282°
2026-05-04 00:27 29.38666 -91.83763 32140 ft 385 kts 282°
2026-05-04 00:28 29.39362 -91.89821 32138 ft 386 kts 282°
2026-05-04 00:28 29.40060 -91.95916 32131 ft 385 kts 282°
2026-05-04 00:29 29.40757 -92.02017 32136 ft 386 kts 282°
2026-05-04 00:29 29.41451 -92.08139 32136 ft 387 kts 282°
2026-05-04 00:30 29.42143 -92.14254 32141 ft 387 kts 282°
2026-05-04 00:30 29.42834 -92.20378 32140 ft 387 kts 282°
2026-05-04 00:31 29.43521 -92.26507 32138 ft 387 kts 282°
2026-05-04 00:31 29.44206 -92.32635 32140 ft 388 kts 281°
2026-05-04 00:32 29.44887 -92.38749 32144 ft 389 kts 281°
2026-05-04 00:32 29.45570 -92.44922 32145 ft 390 kts 281°
2026-05-04 00:33 29.46139 -92.54285 32148 ft 394 kts 277°
2026-05-04 00:34 29.46386 -92.60563 32150 ft 393 kts 277°
2026-05-04 00:34 29.46656 -92.66832 32153 ft 393 kts 277°
2026-05-04 00:35 29.46940 -92.73092 32146 ft 393 kts 277°
2026-05-04 00:35 29.47226 -92.79355 32154 ft 393 kts 277°
2026-05-04 00:36 29.47509 -92.85626 32153 ft 393 kts 277°
2026-05-04 00:36 29.47788 -92.91854 32157 ft 393 kts 277°
2026-05-04 00:37 29.48064 -92.98126 32157 ft 393 kts 277°
2026-05-04 00:37 29.48338 -93.04391 32156 ft 393 kts 277°
2026-05-04 00:38 29.48604 -93.10656 32152 ft 392 kts 277°
2026-05-04 00:38 29.48855 -93.16918 32156 ft 392 kts 277°
2026-05-04 00:39 29.49101 -93.23175 32156 ft 392 kts 277°
2026-05-04 00:39 29.49346 -93.29429 32160 ft 392 kts 277°
2026-05-04 00:40 29.49549 -93.34630 32158 ft 392 kts 277°
2026-05-04 00:40 29.49827 -93.41921 32165 ft 393 kts 277°
2026-05-04 00:41 29.50066 -93.48202 32151 ft 394 kts 277°
2026-05-04 00:41 29.50305 -93.54517 31756 ft 401 kts 277°
2026-05-04 00:41 29.50424 -93.57709 31107 ft 398 kts 276°
2026-05-04 00:42 29.50539 -93.60875 30376 ft 397 kts 276°
2026-05-04 00:42 29.50655 -93.64047 29459 ft 398 kts 276°
2026-05-04 00:42 29.50771 -93.67223 28531 ft 399 kts 276°
2026-05-04 00:42 29.50886 -93.70419 27601 ft 400 kts 276°
2026-05-04 00:43 29.51001 -93.73615 26813 ft 400 kts 276°
2026-05-04 00:43 29.51113 -93.76785 26170 ft 396 kts 276°
2026-05-04 00:43 29.51224 -93.79925 25643 ft 390 kts 276°
2026-05-04 00:43 29.51329 -93.82980 25429 ft 377 kts 276°
2026-05-04 00:44 29.51430 -93.85897 25288 ft 364 kts 276°
2026-05-04 00:44 29.51530 -93.88752 25133 ft 354 kts 276°
2026-05-04 00:44 29.51630 -93.91594 25000 ft 358 kts 276°
2026-05-04 00:44 29.51730 -93.94455 24842 ft 354 kts 276°
2026-05-04 00:45 29.51826 -93.97274 24203 ft 356 kts 276°
2026-05-04 00:45 29.51925 -94.00111 23667 ft 356 kts 276°
2026-05-04 00:45 29.52022 -94.02943 23157 ft 353 kts 275°
2026-05-04 00:45 29.52118 -94.05752 22669 ft 350 kts 276°
2026-05-04 00:46 29.52211 -94.08497 22217 ft 347 kts 276°
2026-05-04 00:46 29.52304 -94.11254 21771 ft 344 kts 276°
2026-05-04 00:46 29.52396 -94.13987 21335 ft 341 kts 276°
2026-05-04 00:46 29.52487 -94.16696 20910 ft 338 kts 276°
2026-05-04 00:47 29.52577 -94.19388 20478 ft 336 kts 276°
2026-05-04 00:47 29.52666 -94.22060 20059 ft 334 kts 275°
2026-05-04 00:47 29.52753 -94.24719 19649 ft 333 kts 275°
2026-05-04 00:47 29.52841 -94.27375 19249 ft 332 kts 275°
2026-05-04 00:48 29.53139 -94.29981 18805 ft 328 kts 289°
2026-05-04 00:48 29.54009 -94.32386 18350 ft 327 kts 297°
2026-05-04 00:48 29.55025 -94.34722 17854 ft 326 kts 298°
2026-05-04 00:48 29.56057 -94.37047 17355 ft 327 kts 297°
2026-05-04 00:49 29.57080 -94.39367 16930 ft 325 kts 297°
2026-05-04 00:49 29.58090 -94.41686 16516 ft 324 kts 297°
2026-05-04 00:49 29.59089 -94.43999 16107 ft 322 kts 297°
2026-05-04 00:49 29.60076 -94.46302 15703 ft 321 kts 296°
2026-05-04 00:50 29.61061 -94.48602 15312 ft 320 kts 296°
2026-05-04 00:50 29.62040 -94.50890 14950 ft 319 kts 296°
2026-05-04 00:50 29.63018 -94.53171 14651 ft 320 kts 296°
2026-05-04 00:50 29.64014 -94.55494 14340 ft 328 kts 296°
2026-05-04 00:51 29.65019 -94.57839 14018 ft 334 kts 296°
2026-05-04 00:51 29.66048 -94.60240 13667 ft 335 kts 296°
2026-05-04 00:51 29.67075 -94.62640 13318 ft 333 kts 296°
2026-05-04 00:51 29.68097 -94.65030 12992 ft 332 kts 296°
2026-05-04 00:52 29.69112 -94.67404 12668 ft 330 kts 296°
2026-05-04 00:52 29.70122 -94.69766 12355 ft 329 kts 296°
2026-05-04 00:52 29.71129 -94.72129 12049 ft 327 kts 296°
2026-05-04 00:52 29.72128 -94.74472 11738 ft 326 kts 296°
2026-05-04 00:53 29.73124 -94.76809 11441 ft 325 kts 296°
2026-05-04 00:53 29.74119 -94.79144 11139 ft 324 kts 296°
2026-05-04 00:53 29.75104 -94.81457 10822 ft 320 kts 296°
2026-05-04 00:53 29.76076 -94.83745 10534 ft 316 kts 295°
2026-05-04 00:54 29.77036 -94.86004 10241 ft 312 kts 295°
2026-05-04 00:54 29.77984 -94.88239 9962 ft 308 kts 295°
2026-05-04 00:54 29.78904 -94.90406 9954 ft 294 kts 295°
2026-05-04 00:54 29.79784 -94.92481 9891 ft 284 kts 295°
2026-05-04 00:55 29.80632 -94.94479 9675 ft 276 kts 295°
2026-05-04 00:55 29.81469 -94.96455 9282 ft 272 kts 295°
2026-05-04 00:55 29.82284 -94.98384 8947 ft 266 kts 296°
2026-05-04 00:55 29.83098 -95.00308 8393 ft 269 kts 296°
2026-05-04 00:56 29.83907 -95.02222 8112 ft 265 kts 296°
2026-05-04 00:56 29.84710 -95.04121 7856 ft 264 kts 296°
2026-05-04 00:56 29.85518 -95.06033 7613 ft 268 kts 296°
2026-05-04 00:56 29.86351 -95.08004 7355 ft 271 kts 296°
2026-05-04 00:57 29.87162 -95.09925 7095 ft 269 kts 296°
2026-05-04 00:57 29.87809 -95.11945 6839 ft 268 kts 284°
2026-05-04 00:57 29.88209 -95.14030 6602 ft 265 kts 282°
2026-05-04 00:57 29.88591 -95.16099 6347 ft 263 kts 283°
2026-05-04 00:58 29.88984 -95.18152 6109 ft 262 kts 283°
2026-05-04 00:58 29.89249 -95.20237 6034 ft 266 kts 272°
2026-05-04 00:58 29.89242 -95.22372 6005 ft 266 kts 269°
2026-05-04 00:58 29.89211 -95.24491 5994 ft 263 kts 270°
2026-05-04 00:59 29.89197 -95.26597 5991 ft 262 kts 270°
2026-05-04 00:59 29.89191 -95.28702 6001 ft 264 kts 270°
2026-05-04 00:59 29.89191 -95.30821 6007 ft 265 kts 271°
2026-05-04 00:59 29.89196 -95.32943 6006 ft 266 kts 271°
2026-05-04 01:00 29.89200 -95.35072 6012 ft 264 kts 270°
2026-05-04 01:00 29.89205 -95.37183 5996 ft 262 kts 270°
2026-05-04 01:00 29.89210 -95.39260 5986 ft 255 kts 270°
2026-05-04 01:00 29.89216 -95.41270 5979 ft 246 kts 270°
2026-05-04 01:01 29.89221 -95.43198 5983 ft 237 kts 270°
2026-05-04 01:01 29.89225 -95.45068 5915 ft 231 kts 270°
2026-05-04 01:01 29.89225 -95.46890 5653 ft 229 kts 269°
2026-05-04 01:01 29.89195 -95.48724 5273 ft 229 kts 268°
2026-05-04 01:02 29.89152 -95.50555 4835 ft 230 kts 268°
2026-05-04 01:02 29.89123 -95.52405 4356 ft 231 kts 274°
2026-05-04 01:02 29.89673 -95.54140 3871 ft 235 kts 306°
2026-05-04 01:02 29.90958 -95.55268 3450 ft 235 kts 339°
2026-05-04 01:03 29.92564 -95.55526 3030 ft 234 kts
2026-05-04 01:03 29.94195 -95.55499 2615 ft 235 kts
2026-05-04 01:03 29.95754 -95.55014 2501 ft 235 kts 33°
2026-05-04 01:03 29.96901 -95.53712 2499 ft 230 kts 58°
2026-05-04 01:04 29.97748 -95.52149 2493 ft 229 kts 62°
2026-05-04 01:04 29.98287 -95.51110 2493 ft 228 kts 62°
2026-05-04 01:04 29.99263 -95.49032 2315 ft 211 kts 78°
2026-05-04 01:04 29.99333 -95.47457 2127 ft 188 kts 96°
2026-05-04 01:05 29.99338 -95.46024 1881 ft 171 kts 93°
2026-05-04 01:05 29.99350 -95.44717 1657 ft 153 kts 94°
2026-05-04 01:05 29.99351 -95.43926 1521 ft 146 kts 95°
2026-05-04 01:05 29.99350 -95.42778 1347 ft 142 kts 95°
2026-05-04 01:06 29.99347 -95.41620 1177 ft 148 kts 95°
2026-05-04 01:06 29.99346 -95.40428 963 ft 149 kts 95°
2026-05-04 01:06 29.99342 -95.39249 757 ft 144 kts 93°
2026-05-04 01:06 29.99344 -95.38108 576 ft 142 kts 92°
2026-05-04 01:07 29.99348 -95.36965 395 ft 142 kts 94°
2026-05-04 01:07 29.99343 -95.35829 191 ft 140 kts 93°
2026-05-04 01:07 29.99342 -95.34758 107 ft 123 kts 90°
2026-05-04 01:07 29.99342 -95.34025 104 ft 60 kts 90°
2026-05-04 01:08 29.99343 -95.33803 105 ft 0 kts 90°
2026-05-04 01:08 29.99342 -95.33663 107 ft 37 kts 90°
2026-05-04 01:08 29.99324 -95.33360 107 ft 37 kts 103°
2026-05-04 01:08 29.99214 -95.33103 104 ft 34 kts 123°
2026-05-04 01:09 29.99013 -95.33026 106 ft 31 kts 181°
2026-05-04 01:09 29.98806 -95.33026 105 ft 29 kts 180°
2026-05-04 01:09 29.98611 -95.33026 106 ft 27 kts 180°
2026-05-04 01:09 29.98430 -95.33026 106 ft 25 kts 180°
2026-05-04 01:10 29.98314 -95.33061 106 ft 13 kts 241°
2026-05-04 01:10 29.98300 -95.33160 106 ft 13 kts 271°
2026-05-04 01:10 29.98301 -95.33282 106 ft 18 kts 270°
2026-05-04 01:10 29.98379 -95.33394 105 ft 21 kts 345°
2026-05-04 01:11 29.98500 -95.33396 106 ft 9 kts 359°
2026-05-04 01:11 29.98521 -95.33397 106 ft 3 kts 359°
2026-05-04 01:11 29.98527 -95.33397 106 ft 0 kts 359°